Date String (YYYY-MM-DD hh:mm:ss) UTC,Instrument flags,absolute air pressure of the measurement (hPa),sample flow rate (lpm),inlet stack bypass flow (lpm),air temperature of the measurement (°C),ambient temperature measured by the external sensor (°C),aerosol sample conditioner tube jacket temperature (°C),OPC LED temperature (°C),internal box temperature (°C),relative humidity of the measurement (%),span deviation,mass concentration of particles derived from Lorenz-Mie calculation of OPC scattering (μg/m³),mass concentration of particles derived from Lorenz-Mie calculation of OPC scattering (μg/m³),mass concentration of particles derived from Lorenz-Mie calculation of OPC scattering (μg/m³)
DateTimeUTC,F1_M11,P_M11,Q1_M11,Q2_M11,T1_M11,T2_M11,T3_M11,T4_M11,T5_M11,U1_M11,ZSPAN_M11,X2_M11,X0_M11,X1_M11
2024-03-26 19:00:00,SystemResetWarning,0820.8,5.00,000.00,020.4,020.0,000.0,028.7,022.2,14.9,0001.3,0013.47,0017.12,0012.95
2024-03-26 19:01:00,SystemResetWarning,0820.8,5.01,000.00,020.4,020.0,000.0,028.7,022.2,15.1,0001.7,0013.57,0017.32,0013.04
2024-03-26 19:02:00,SystemResetWarning,0820.8,5.00,000.00,020.4,020.0,000.0,028.7,022.2,15.2,0002.1,0013.68,0017.78,0013.12
2024-03-26 19:03:00,SystemResetWarning,0820.8,5.00,000.00,020.4,020.0,000.0,028.8,022.2,15.3,0002.0,0013.71,0017.73,0013.16
2024-03-26 19:04:00,SystemResetWarning,0820.9,4.99,000.00,020.5,020.0,000.0,028.8,022.2,15.0,0001.9,0013.72,0018.15,0013.20
2024-03-26 19:05:00,SystemResetWarning,0820.8,4.99,000.00,020.5,020.0,000.0,028.8,022.2,15.1,0002.1,0013.76,0018.30,0013.24
2024-03-26 19:06:00,SystemResetWarning,0820.8,5.01,000.00,020.5,020.0,000.0,028.8,022.2,15.0,0002.1,0013.82,0017.99,0013.28
2024-03-26 19:07:00,SystemResetWarning,0820.8,5.01,000.00,020.5,020.0,000.0,028.8,022.2,14.8,0002.0,0013.85,0018.03,0013.35
2024-03-26 19:08:00,SystemResetWarning,0820.7,5.01,000.00,020.5,019.9,000.0,028.8,022.2,14.9,0001.5,0013.91,0018.48,0013.43
2024-03-26 19:09:00,SystemResetWarning,0820.8,5.00,000.00,020.5,019.9,000.0,028.8,022.2,15.1,0001.5,0013.95,0018.41,0013.48
2024-03-26 19:10:00,SystemResetWarning,0820.8,4.99,000.00,020.5,019.9,000.0,028.8,022.2,15.1,0001.7,0014.02,0018.23,0013.54
2024-03-26 19:11:00,SystemResetWarning,0820.8,4.99,000.00,020.4,019.9,000.0,028.8,022.2,14.9,0001.8,0014.09,0018.49,0013.61
2024-03-26 19:12:00,SystemResetWarning,0820.8,5.01,000.00,020.5,019.9,000.0,028.8,022.2,15.2,0001.8,0014.15,0019.10,0013.67
2024-03-26 19:13:00,SystemResetWarning,0820.8,5.01,000.00,020.5,019.9,000.0,028.8,022.2,14.9,0001.4,0014.22,0019.42,0013.73
2024-03-26 19:14:00,SystemResetWarning,0820.7,5.00,000.00,020.5,019.9,000.0,028.9,022.2,15.0,0001.4,0014.31,0019.82,0013.83
2024-03-26 19:15:00,SystemResetWarning,0820.7,4.99,000.00,020.5,019.9,000.0,028.9,022.2,15.1,0001.3,0014.40,0019.65,0013.91
2024-03-26 19:16:00,SystemResetWarning,0820.6,4.99,000.00,020.5,019.9,000.0,028.9,022.2,15.0,0001.2,0014.45,0019.34,0013.97
2024-03-26 19:17:00,SystemResetWarning,0820.6,5.00,000.00,020.5,020.0,000.0,028.9,022.2,15.5,0001.2,0014.48,0019.41,0014.00
2024-03-26 19:18:00,SystemResetWarning,0820.6,5.00,000.00,020.5,020.0,000.0,028.9,022.3,15.4,0001.0,0014.52,0019.53,0014.04
2024-03-26 19:19:00,SystemResetWarning,0820.7,5.01,000.00,020.5,020.0,000.0,028.9,022.3,15.4,0000.9,0014.53,0019.19,0014.03
2024-03-26 19:20:00,SystemResetWarning,0820.7,5.00,000.00,020.5,020.0,000.0,028.9,022.3,15.3,0001.0,0014.52,0018.95,0014.02
2024-03-26 19:21:00,SystemResetWarning,0820.7,5.00,000.00,020.5,020.0,000.0,028.9,022.3,15.1,0001.1,0014.44,0018.72,0013.95
2024-03-26 19:22:00,SystemResetWarning,0820.7,5.00,000.00,020.5,020.1,000.0,028.9,022.3,15.3,0000.7,0014.36,0018.33,0013.90
2024-03-26 19:23:00,SystemResetWarning,0820.7,5.00,000.00,020.5,020.1,000.0,028.9,022.3,15.2,0000.3,0014.29,0018.11,0013.83
2024-03-26 19:24:00,SystemResetWarning,0820.7,5.00,000.00,020.5,020.1,000.0,028.9,022.3,15.1,0000.4,0014.19,0017.54,0013.77
2024-03-26 19:25:00,SystemResetWarning,0820.7,5.00,000.00,020.5,020.1,000.0,028.9,022.3,15.2,0000.6,0014.11,0016.86,0013.70
2024-03-26 19:26:00,SystemResetWarning,0820.7,5.00,000.00,020.6,020.1,000.0,028.9,022.4,15.4,0000.7,0014.08,0016.95,0013.65
2024-03-26 19:27:00,SystemResetWarning,0820.7,5.00,000.00,020.6,020.1,000.0,028.9,022.4,15.2,0000.8,0014.03,0016.94,0013.60
2024-03-26 19:28:00,SystemResetWarning,0820.7,5.00,000.00,020.6,020.1,000.0,029.0,022.4,15.2,0000.6,0013.99,0016.98,0013.54
2024-03-26 19:29:00,SystemResetWarning,0820.6,5.00,000.00,020.6,020.1,000.0,029.0,022.4,15.2,0000.6,0013.98,0017.34,0013.49
2024-03-26 19:30:00,SystemResetWarning,0820.7,5.00,000.00,020.6,020.1,000.0,029.0,022.4,15.5,0000.8,0013.95,0017.41,0013.44
2024-03-26 19:31:00,SystemResetWarning,0820.7,5.00,000.00,020.6,020.1,000.0,029.0,022.4,15.4,0000.7,0013.92,0017.54,0013.39
2024-03-26 19:32:00,SystemResetWarning,0820.7,5.01,000.00,020.6,020.1,000.0,029.0,022.4,15.3,0000.7,0013.88,0017.96,0013.33
2024-03-26 19:33:00,SystemResetWarning,0820.6,5.00,000.00,020.6,020.1,000.0,029.0,022.4,15.3,0000.7,0013.83,0018.47,0013.28
2024-03-26 19:34:00,SystemResetWarning,0820.6,5.01,000.00,020.6,020.1,000.0,029.0,022.4,15.2,0000.9,0013.79,0018.31,0013.25
2024-03-26 19:35:00,SystemResetWarning,0820.6,5.00,000.00,020.6,020.2,000.0,029.0,022.4,15.3,0001.2,0013.74,0018.19,0013.18
2024-03-26 19:36:00,SystemResetWarning,0820.6,5.00,000.00,020.6,020.2,000.0,029.0,022.5,15.1,0000.8,0013.64,0018.03,0013.09
2024-03-26 19:37:00,SystemResetWarning,0820.7,5.00,000.00,020.7,020.2,000.0,029.0,022.5,15.1,0000.8,0013.53,0017.80,0012.97
2024-03-26 19:38:00,SystemResetWarning,0820.7,5.00,000.00,020.7,020.2,000.0,029.0,022.5,14.9,0001.0,0013.37,0017.61,0012.83
2024-03-26 19:39:00,SystemResetWarning,0820.7,5.00,000.00,020.7,020.2,000.0,029.0,022.5,14.6,0000.9,0013.19,0017.30,0012.67
2024-03-26 19:40:00,SystemResetWarning,0820.7,5.00,000.00,020.7,020.3,000.0,029.1,022.5,14.7,0001.3,0013.01,0017.19,0012.51
2024-03-26 19:41:00,SystemResetWarning,0820.7,5.00,000.00,020.7,020.3,000.0,029.1,022.5,15.5,0001.3,0012.88,0017.07,0012.38
2024-03-26 19:42:00,SystemResetWarning,0820.7,4.99,000.00,020.7,020.3,000.0,029.1,022.5,15.3,0001.6,0012.76,0016.77,0012.30
2024-03-26 19:43:00,SystemResetWarning,0820.7,5.00,000.00,020.7,020.3,000.0,029.1,022.5,15.3,0001.7,0012.66,0016.37,0012.21
2024-03-26 19:44:00,SystemResetWarning,0820.7,5.01,000.00,020.7,020.3,000.0,029.1,022.5,14.7,0001.7,0012.58,0016.30,0012.13
2024-03-26 19:45:00,SystemResetWarning,0820.7,5.01,000.00,020.8,020.3,000.0,029.1,022.5,14.4,0001.6,0012.48,0016.84,0012.03
2024-03-26 19:46:00,SystemResetWarning,0820.7,5.01,000.00,020.8,020.2,000.0,029.1,022.5,14.7,0001.3,0012.43,0016.73,0011.99
2024-03-26 19:47:00,SystemResetWarning,0820.7,5.00,000.00,020.8,020.3,000.0,029.1,022.6,15.0,0001.6,0012.42,0016.75,0011.99
2024-03-26 19:48:00,SystemResetWarning,0820.7,5.00,000.00,020.8,020.3,000.0,029.1,022.6,15.2,0001.8,0012.39,0016.75,0011.96
2024-03-26 19:49:00,SystemResetWarning,0820.7,5.00,000.00,020.8,020.3,000.0,029.1,022.6,15.1,0001.5,0012.38,0016.80,0011.95
2024-03-26 19:50:00,SystemResetWarning,0820.7,5.00,000.00,020.8,020.3,000.0,029.2,022.6,14.4,0001.3,0012.41,0016.82,0011.97
2024-03-26 19:51:00,SystemResetWarning,0820.8,5.00,000.00,020.8,020.3,000.0,029.2,022.6,14.4,0001.0,0012.41,0016.48,0011.99
2024-03-26 19:52:00,SystemResetWarning,0820.8,5.00,000.00,020.8,020.4,000.0,029.2,022.6,14.3,0000.8,0012.35,0016.09,0011.97
2024-03-26 19:53:00,SystemResetWarning,0820.8,5.01,000.00,020.8,020.4,000.0,029.2,022.6,14.3,0000.8,0012.27,0016.06,0011.92
2024-03-26 19:54:00,SystemResetWarning,0820.8,5.00,000.00,020.8,020.4,000.0,029.2,022.7,14.0,0000.6,0012.26,0016.08,0011.91
2024-03-26 19:55:00,SystemResetWarning,0820.8,5.01,000.00,020.9,020.4,000.0,029.2,022.7,14.3,0000.5,0012.27,0015.66,0011.91
2024-03-26 19:56:00,SystemResetWarning,0820.8,5.00,000.00,020.9,020.4,000.0,029.2,022.7,14.2,0000.7,0012.30,0015.16,0011.92
2024-03-26 19:57:00,SystemResetWarning,0820.8,4.99,000.00,020.9,020.4,000.0,029.2,022.7,14.6,0000.8,0012.35,0015.39,0011.94
2024-03-26 19:58:00,SystemResetWarning,0820.8,4.99,000.00,020.9,020.4,000.0,029.2,022.7,14.8,0000.4,0012.41,0015.72,0011.97
2024-03-26 19:59:00,SystemResetWarning,0820.8,5.01,000.00,020.9,020.5,000.0,029.2,022.7,14.9,0000.3,0012.42,0015.76,0012.00
